Tomahawk, WI

8:59 PM CDT on April 30, 2017 (GMT -0500)
Tomahawk

Weather History for KTKV - October, 2011

Change the Weather History Date:

Monday, October 10, 2011

  Actual Average (KRHI) Record (KRHI)
Temperature  
Mean Temperature 55 °F -  
Max Temperature 74 °F 55 °F 81 °F (1928)
Min Temperature 36 °F 35 °F 19 °F (1964)
Degree Days  
Heating Degree Days 10    
Growing Degree Days 5 (Base 50)    
Moisture  
Dew Point 45 °F    
Average Humidity 68    
Maximum Humidity 95    
Minimum Humidity 40    
Precipitation  
Precipitation 0.00 in - - ()
Sea Level Pressure  
Sea Level Pressure 30.13 in    
Wind  
Wind Speed 2 mph (SE)    
Max Wind Speed 10 mph    
Max Gust Speed 18 mph    
Visibility 8 miles    
Events Fog    
Averages and records for this station are not official NWS values.
T = Trace of Precipitation, MM = Missing Value Source: NWS Daily Summary

Daily Weather History Graph

Daily Weather History Graph

Search for Another Location

Airport or City:

Trip Planner

Search our weather history database for the weather conditions in past years. The results will help you decide how hot, cold, wet, or windy it might be!

Date:

Astronomy

Oct. 10, 2011 Rise Set
Actual Time 7:08 AM CDT 6:23 PM CDT
Civil Twilight 6:38 AM CDT 6:52 PM CDT
Nautical Twilight 6:04 AM CDT 7:26 PM CDT
Astronomical Twilight 5:30 AM CDT 8:01 PM CDT
Moon 5:26 PM CDT (10/10) 5:48 AM CDT (10/10)
Length of Visible Light 12h 13m
Length of Day
11h 14m
Waxing Gibbous, 98% of the Moon is Illuminated
Oct 10
Waxing Gibbous
Oct 11
Full
Oct 19
Last Quarter
Oct 26
New
Nov 2
First Quarter

Hourly Weather History & Observations

Time (CDT) Temp. Dew Point Humidity Pressure Visibility Wind Dir Wind Speed Gust Speed Precip Events Conditions
12:15 AM 46.8 °F 44.2 °F 91% 30.24 in 7.0 mi Calm Calm - N/A   Clear
12:35 AM 46.9 °F 45.1 °F 93% 30.24 in 7.0 mi Calm Calm - N/A   Clear
12:55 AM 46.4 °F 44.6 °F 93% 30.24 in 7.0 mi Calm Calm - N/A   Clear
1:15 AM 45.9 °F 44.1 °F 93% 30.24 in 5.0 mi Calm Calm - N/A   Clear
1:35 AM 45.7 °F 43.9 °F 93% 30.24 in 7.0 mi Calm Calm - N/A   Clear
2:15 AM 43.2 °F 41.7 °F 95% 30.24 in 7.0 mi Calm Calm - N/A   Clear
2:55 AM 43.2 °F 41.4 °F 93% 30.23 in 5.0 mi Calm Calm - N/A   Clear
3:15 AM 43.7 °F 42.3 °F 95% 30.23 in 5.0 mi Calm Calm - N/A   Clear
3:35 AM 41.5 °F 39.7 °F 93% 30.22 in 10.0 mi Calm Calm - N/A   Clear
4:15 AM 40.3 °F 38.1 °F 92% 30.22 in 7.0 mi Calm Calm - N/A   Clear
4:35 AM 39.7 °F 37.8 °F 93% 30.22 in 0.2 mi Calm Calm - N/A Fog Fog
4:55 AM 38.8 °F 37.4 °F 95% 30.22 in 0.8 mi Calm Calm - N/A   Mist
5:35 AM 37.8 °F 36.5 °F 95% 30.22 in 5.0 mi Calm Calm - N/A   Clear
5:55 AM 37.6 °F 36.3 °F 95% 30.22 in 0.5 mi Calm Calm - N/A Fog Fog
6:15 AM 37.2 °F 36.0 °F 95% 30.22 in 2.5 mi Calm Calm - N/A   Clear
6:35 AM 36.9 °F 35.6 °F 95% 30.21 in 3.0 mi Calm Calm - N/A   Clear
6:55 AM 37.0 °F 35.8 °F 95% 30.22 in 5.0 mi Calm Calm - N/A   Clear
7:15 AM 36.9 °F 35.6 °F 95% 30.21 in 7.0 mi Calm Calm - N/A   Clear
7:35 AM 36.7 °F 35.2 °F 95% 30.21 in 4.0 mi Calm Calm - N/A   Clear
8:15 AM 40.3 °F 38.8 °F 95% 30.20 in 4.0 mi Calm Calm - N/A   Clear
8:35 AM 46.8 °F 45.5 °F 95% 30.20 in 5.0 mi Calm Calm - N/A   Clear
8:55 AM 54.0 °F 50.0 °F 86% 30.20 in 7.0 mi Calm Calm - N/A   Clear
9:15 AM 56.8 °F 50.5 °F 79% 30.19 in 10.0 mi SE 3.5 mph - N/A   Clear
9:35 AM 59.5 °F 50.9 °F 73% 30.19 in 10.0 mi ESE 3.5 mph - N/A   Clear
9:55 AM 62.6 °F 52.0 °F 68% 30.19 in 10.0 mi SE 6.9 mph - N/A   Clear
10:15 AM 65.5 °F 51.6 °F 61% 30.18 in 10.0 mi ESE 6.9 mph - N/A   Clear
10:35 AM 67.3 °F 51.4 °F 57% 30.18 in 10.0 mi SSE 5.8 mph - N/A   Clear
11:15 AM 69.8 °F 50.7 °F 51% 30.16 in 10.0 mi SE 5.8 mph - N/A   Clear
11:35 AM 70.9 °F 50.2 °F 48% 30.15 in 10.0 mi South 3.5 mph - N/A   Clear
11:55 AM 72.3 °F 49.8 °F 45% 30.14 in 10.0 mi South 4.6 mph - N/A   Clear
12:15 PM 73.4 °F 49.8 °F 43% 30.14 in 10.0 mi South 8.1 mph - N/A   Clear
12:35 PM 73.8 °F 49.8 °F 43% 30.13 in 10.0 mi SSE 10.4 mph 16.1 mph N/A   Scattered Clouds
1:15 PM 73.9 °F 49.3 °F 42% 30.11 in 10.0 mi SSE 9.2 mph 16.1 mph N/A   Scattered Clouds
1:35 PM 74.5 °F 48.9 °F 40% 30.10 in 10.0 mi SSE 9.2 mph 18.4 mph N/A   Clear
1:55 PM 74.3 °F 48.4 °F 40% 30.08 in 10.0 mi SE 8.1 mph 17.3 mph N/A   Scattered Clouds
2:15 PM 73.9 °F 48.6 °F 41% 30.07 in 10.0 mi SSE 6.9 mph - N/A   Clear
2:35 PM 73.9 °F 48.2 °F 40% 30.06 in 10.0 mi SE 5.8 mph - N/A   Clear
2:55 PM 73.9 °F 48.2 °F 40% 30.06 in 10.0 mi SSE 8.1 mph - N/A   Clear
3:15 PM 73.0 °F 47.5 °F 40% 30.05 in 10.0 mi SE 8.1 mph - N/A   Clear
3:35 PM 72.7 °F 47.5 °F 41% 30.05 in 10.0 mi SE 4.6 mph - N/A   Clear
4:15 PM 71.2 °F 46.9 °F 42% 30.04 in 10.0 mi SE 8.1 mph - N/A   Clear
4:35 PM 71.4 °F 46.8 °F 41% 30.03 in 10.0 mi SSE 3.5 mph - N/A   Clear
4:55 PM 70.9 °F 46.8 °F 42% 30.03 in 10.0 mi SSE 4.6 mph - N/A   Clear
5:15 PM 70.0 °F 47.3 °F 44% 30.02 in 10.0 mi SSE 5.8 mph - N/A   Scattered Clouds
5:35 PM 68.9 °F 47.8 °F 47% 30.02 in 10.0 mi SSE 3.5 mph - N/A   Scattered Clouds
5:55 PM 67.5 °F 48.0 °F 50% 30.02 in 10.0 mi SSE 3.5 mph - N/A   Clear
6:35 PM 64.0 °F 48.7 °F 57% 30.01 in 10.0 mi Calm Calm - N/A   Clear
6:55 PM 62.8 °F 48.7 °F 60% 30.01 in 10.0 mi Calm Calm - N/A   Clear
7:15 PM 62.1 °F 48.6 °F 61% 30.01 in 10.0 mi Calm Calm - N/A   Clear
7:35 PM 61.7 °F 48.4 °F 62% 30.01 in 10.0 mi SE 3.5 mph - N/A   Clear
7:55 PM 61.3 °F 48.2 °F 62% 30.00 in 10.0 mi SE 3.5 mph - N/A   Clear
8:35 PM 62.1 °F 47.7 °F 59% 30.00 in 10.0 mi SE 3.5 mph - N/A   Clear
8:55 PM 62.1 °F 47.5 °F 59% 30.00 in 10.0 mi SE 4.6 mph - N/A   Clear
9:15 PM 62.1 °F 47.7 °F 59% 30.01 in 10.0 mi SE 4.6 mph - N/A   Clear
9:35 PM 61.2 °F 48.2 °F 62% 30.01 in 10.0 mi SE 4.6 mph - N/A   Clear
9:55 PM 60.6 °F 48.4 °F 64% 30.01 in 10.0 mi SE 4.6 mph - N/A   Clear
10:15 PM 60.4 °F 48.6 °F 65% 30.01 in 10.0 mi SE 3.5 mph - N/A   Clear
10:35 PM 60.4 °F 48.7 °F 65% 30.01 in 10.0 mi SE 4.6 mph - N/A   Clear
10:55 PM 60.3 °F 48.7 °F 66% 30.01 in 10.0 mi SE 3.5 mph - N/A   Clear
11:35 PM 58.8 °F 48.6 °F 69% 30.01 in 10.0 mi Calm Calm - N/A   Clear
11:55 PM 58.1 °F 48.6 °F 71% 30.00 in 10.0 mi Calm Calm - N/A   Scattered Clouds